Location: Hohe Wand Kleine Kanzel
(47.8330°N, 16.0170°E)
Time: 15:05:08
(UTC+02:00)

Courier 1B Rocket - Pass Details

Date: 03 August 2021
Orbit: 920 x 1202 km, 28.3° (Epoch: 27 September)

Event Time Altitude Azimuth Distance (km) Brightness Sun altitude
Rises 05:01:22 0° 239° (WSW) 3,684 - -5.7°
Exits shadow 05:03:56 - 225° (SW) 3,089 7.0 -5.4°
Reaches altitude 10° 05:07:13 10° 199° (SSW) 2,662 6.8 -4.9°
Maximum altitude 05:07:58 10° 193° (SSW) 2,640 6.9 -4.8°
Drops below altitude 10° 05:08:42 10° 186° (S) 2,647 6.9 -4.7°
Sets 05:14:22 0° 145° (SE) 3,551 8.0 -3.9°
